• In Deutschland
  • Länderverzeichnis
  • Für 7 Tage
  • Wassertemperatur
  • Satellitenkarten
  • Wetterkarte
  • Widgets
  • user-avatar
    Anmelden

    Stündliche Wetter Herrenberg

    Heute, 12 Dezember, Dienstag

    Zeit Temperatur Niederschläge Wind Luftdruck Luftfeuchtigkeit
    00:00 +2°C° 0,1 mm 5 m/S 704 mmHg 84%
    01:00 +2°C° 0,1 mm 5 m/S 704 mmHg 84%
    02:00 +1°C° 0,1 mm 6 m/S 706 mmHg 84%
    03:00 +1°C° 0,1 mm 6 m/S 707 mmHg 83%
    04:00 -1°C° 0,1 mm 7 m/S 708 mmHg 83%
    05:00 -1°C° 0 mm 6 m/S 709 mmHg 83%
    06:00 -2°C° 0 mm 6 m/S 711 mmHg 83%
    07:00 -2°C° 0 mm 6 m/S 712 mmHg 83%
    08:00 -2°C° 0 mm 6 m/S 714 mmHg 83%
    09:00 -2°C° 0 mm 6 m/S 715 mmHg 82%
    10:00 -1°C° 0 mm 5 m/S 717 mmHg 82%
    11:00 -1°C° 0 mm 5 m/S 717 mmHg 81%
    12:00 0°C° 0 mm 5 m/S 718 mmHg 80%
    13:00 0°C° 0 mm 4 m/S 719 mmHg 79%
    14:00 0°C° 0 mm 4 m/S 720 mmHg 80%
    15:00 -1°C° 0 mm 4 m/S 720 mmHg 82%
    16:00 0°C° 0 mm 3 m/S 721 mmHg 83%
    17:00 -1°C° 0 mm 3 m/S 721 mmHg 85%
    18:00 -1°C° 0 mm 3 m/S 722 mmHg 87%
    19:00 -2°C° 0 mm 2 m/S 722 mmHg 89%
    20:00 -2°C° 0 mm 2 m/S 723 mmHg 89%
    21:00 -2°C° 0 mm 2 m/S 724 mmHg 89%
    22:00 -2°C° 0 mm 2 m/S 724 mmHg 89%
    23:00 -2°C° 0 mm 3 m/S 724 mmHg 89%

    Morgen, 13 Dezember, Mittwoch

    Zeit Temperatur Niederschläge Wind Luftdruck Luftfeuchtigkeit
    00:00 -2°C° 0 mm 3 m/S 725 mmHg 89%
    01:00 -2°C° 0 mm 3 m/S 725 mmHg 89%
    02:00 -2°C° 0 mm 3 m/S 725 mmHg 89%
    03:00 -4°C° 0 mm 3 m/S 725 mmHg 89%
    04:00 -4°C° 0 mm 3 m/S 725 mmHg 89%
    05:00 -4°C° 0 mm 3 m/S 724 mmHg 87%
    06:00 -4°C° 0 mm 3 m/S 724 mmHg 85%
    07:00 -2°C° 0 mm 3 m/S 724 mmHg 83%
    08:00 -3°C° 0 mm 4 m/S 724 mmHg 79%
    09:00 -2°C° 0 mm 4 m/S 723 mmHg 75%
    10:00 -1°C° 0 mm 5 m/S 723 mmHg 71%
    11:00 0°C° 0 mm 5 m/S 722 mmHg 68%
    12:00 +1°C° 0 mm 5 m/S 721 mmHg 65%
    13:00 +2°C° 0 mm 5 m/S 720 mmHg 63%
    14:00 +1°C° 0,2 mm 5 m/S 719 mmHg 65%
    15:00 +1°C° 0,2 mm 5 m/S 718 mmHg 68%
    16:00 +1°C° 0,2 mm 5 m/S 718 mmHg 70%
    17:00 +1°C° 0,5 mm 6 m/S 717 mmHg 73%
    18:00 +2°C° 0,5 mm 6 m/S 717 mmHg 76%
    19:00 +2°C° 0,5 mm 7 m/S 717 mmHg 78%
    20:00 +2°C° 0,2 mm 7 m/S 716 mmHg 79%
    21:00 +2°C° 0,2 mm 7 m/S 715 mmHg 81%
    22:00 +3°C° 0,2 mm 7 m/S 715 mmHg 82%
    23:00 +3°C° 0,1 mm 7 m/S 714 mmHg 82%

    übermorgen, 14 Dezember, Donnerstag

    Zeit Temperatur Niederschläge Wind Luftdruck Luftfeuchtigkeit
    00:00 +3°C° 0,1 mm 7 m/S 713 mmHg 83%
    01:00 +3°C° 0,1 mm 7 m/S 713 mmHg 83%
    02:00 +4°C° 0,4 mm 7 m/S 712 mmHg 84%
    03:00 +4°C° 0,4 mm 8 m/S 712 mmHg 85%
    04:00 +4°C° 0,4 mm 8 m/S 712 mmHg 85%
    05:00 +3°C° 0,4 mm 7 m/S 713 mmHg 85%
    06:00 +2°C° 0,4 mm 7 m/S 713 mmHg 84%
    07:00 +2°C° 0,4 mm 6 m/S 714 mmHg 83%
    08:00 +2°C° 0,3 mm 6 m/S 714 mmHg 84%
    09:00 +2°C° 0,3 mm 5 m/S 715 mmHg 85%
    10:00 +1°C° 0,3 mm 4 m/S 715 mmHg 85%
    11:00 +2°C° 0,3 mm 5 m/S 714 mmHg 84%
    12:00 +2°C° 0,3 mm 5 m/S 714 mmHg 82%
    13:00 +2°C° 0,3 mm 6 m/S 713 mmHg 81%
    14:00 +2°C° 0,2 mm 5 m/S 712 mmHg 81%
    15:00 +2°C° 0,2 mm 5 m/S 711 mmHg 80%
    16:00 +2°C° 0,2 mm 5 m/S 710 mmHg 80%
    17:00 +2°C° 2,3 mm 5 m/S 709 mmHg 82%
    18:00 +2°C° 2,3 mm 6 m/S 709 mmHg 85%
    19:00 +2°C° 2,3 mm 6 m/S 708 mmHg 87%
    20:00 +2°C° 1,7 mm 7 m/S 708 mmHg 86%
    21:00 +2°C° 1,7 mm 7 m/S 708 mmHg 85%
    22:00 +2°C° 1,7 mm 7 m/S 708 mmHg 84%
    23:00 +1°C° 0,1 mm 6 m/S 709 mmHg 84%

    15 Dezember, Freitag

    Zeit Temperatur Niederschläge Wind Luftdruck Luftfeuchtigkeit
    00:00 -1°C° 0,1 mm 6 m/S 710 mmHg 83%
    01:00 -1°C° 0,1 mm 5 m/S 711 mmHg 83%
    02:00 -1°C° 0 mm 5 m/S 711 mmHg 83%
    03:00 -1°C° 0 mm 5 m/S 711 mmHg 84%
    04:00 -1°C° 0 mm 4 m/S 711 mmHg 85%
    05:00 -1°C° 0,1 mm 4 m/S 711 mmHg 85%
    06:00 -1°C° 0,1 mm 4 m/S 711 mmHg 86%
    07:00 -1°C° 0,1 mm 4 m/S 711 mmHg 86%
    08:00 -1°C° 0 mm 5 m/S 711 mmHg 84%
    09:00 0°C° 0 mm 5 m/S 711 mmHg 82%
    10:00 0°C° 0 mm 5 m/S 711 mmHg 80%
    11:00 +1°C° 0 mm 6 m/S 711 mmHg 78%
    12:00 +1°C° 0 mm 6 m/S 711 mmHg 76%
    13:00 +2°C° 0 mm 7 m/S 710 mmHg 74%
    14:00 +1°C° 0 mm 6 m/S 710 mmHg 76%
    15:00 +1°C° 0 mm 6 m/S 710 mmHg 77%
    16:00 +1°C° 0 mm 5 m/S 710 mmHg 79%
    17:00 +1°C° 0,3 mm 5 m/S 710 mmHg 81%
    18:00 0°C° 0,3 mm 5 m/S 710 mmHg 83%
    19:00 0°C° 0,3 mm 5 m/S 711 mmHg 85%
    20:00 0°C° 0,4 mm 5 m/S 711 mmHg 86%
    21:00 0°C° 0,4 mm 5 m/S 712 mmHg 88%
    22:00 0°C° 0,4 mm 5 m/S 713 mmHg 90%
    23:00 -1°C° 0,2 mm 5 m/S 713 mmHg 90%

    16 Dezember, Samstag

    Zeit Temperatur Niederschläge Wind Luftdruck Luftfeuchtigkeit
    00:00 -1°C° 0,2 mm 5 m/S 714 mmHg 90%
    01:00 -1°C° 0,2 mm 5 m/S 715 mmHg 89%
    02:00 -1°C° 0,1 mm 4 m/S 715 mmHg 89%
    03:00 -2°C° 0,1 mm 4 m/S 716 mmHg 90%
    04:00 -2°C° 0,1 mm 4 m/S 716 mmHg 90%
    05:00 -2°C° 0,1 mm 4 m/S 717 mmHg 90%
    06:00 -2°C° 0,1 mm 4 m/S 717 mmHg 89%
    07:00 -2°C° 0,1 mm 4 m/S 717 mmHg 89%
    08:00 -2°C° 0,3 mm 4 m/S 718 mmHg 88%
    09:00 -2°C° 0,3 mm 4 m/S 718 mmHg 88%
    10:00 -1°C° 0,3 mm 5 m/S 719 mmHg 87%
    11:00 -1°C° 0,2 mm 5 m/S 719 mmHg 86%
    12:00 -1°C° 0,2 mm 5 m/S 719 mmHg 86%
    13:00 0°C° 0,2 mm 5 m/S 719 mmHg 86%
    14:00 0°C° 0,3 mm 5 m/S 719 mmHg 86%
    15:00 -1°C° 0,3 mm 4 m/S 719 mmHg 87%
    16:00 -1°C° 0,3 mm 4 m/S 719 mmHg 88%
    17:00 -1°C° 0,1 mm 4 m/S 720 mmHg 89%
    18:00 -1°C° 0,1 mm 3 m/S 720 mmHg 89%
    19:00 -1°C° 0,1 mm 3 m/S 720 mmHg 89%
    20:00 -1°C° 0,1 mm 3 m/S 721 mmHg 90%
    21:00 -1°C° 0,1 mm 3 m/S 721 mmHg 90%
    22:00 -1°C° 0,1 mm 3 m/S 721 mmHg 90%
    23:00 -2°C° 0,3 mm 3 m/S 721 mmHg 91%

    17 Dezember, Sonntag

    Zeit Temperatur Niederschläge Wind Luftdruck Luftfeuchtigkeit
    00:00 -2°C° 0,3 mm 3 m/S 722 mmHg 92%
    01:00 -2°C° 0,3 mm 3 m/S 722 mmHg 93%
    02:00 -2°C° 0,1 mm 3 m/S 722 mmHg 93%
    03:00 -2°C° 0,1 mm 3 m/S 722 mmHg 94%
    04:00 -2°C° 0,1 mm 2 m/S 723 mmHg 94%
    05:00 -3°C° 0 mm 2 m/S 723 mmHg 94%
    06:00 -4°C° 0 mm 3 m/S 723 mmHg 93%
    07:00 -4°C° 0 mm 3 m/S 724 mmHg 93%
    08:00 -4°C° 0 mm 3 m/S 724 mmHg 92%
    09:00 -2°C° 0 mm 3 m/S 725 mmHg 91%
    10:00 -2°C° 0 mm 3 m/S 725 mmHg 89%
    11:00 -2°C° 0,1 mm 3 m/S 726 mmHg 88%
    12:00 -1°C° 0,1 mm 3 m/S 726 mmHg 87%
    13:00 -2°C° 0,1 mm 4 m/S 726 mmHg 86%
    14:00 -1°C° 0,1 mm 3 m/S 726 mmHg 87%
    15:00 -1°C° 0,1 mm 3 m/S 726 mmHg 87%
    16:00 -2°C° 0,1 mm 3 m/S 726 mmHg 88%
    17:00 -2°C° 0 mm 3 m/S 726 mmHg 89%
    18:00 -4°C° 0 mm 3 m/S 727 mmHg 89%
    19:00 -4°C° 0 mm 2 m/S 727 mmHg 90%
    20:00 -5°C° 0 mm 3 m/S 727 mmHg 89%
    21:00 -5°C° 0 mm 3 m/S 727 mmHg 87%
    22:00 -5°C° 0 mm 3 m/S 727 mmHg 86%
    23:00 -5°C° 0 mm 3 m/S 727 mmHg 85%
    Mehr zeigen